Wind_Speed
17 16 16 16 17 17 18 18 17 17 17 17 17 17 16 16 16 16 16 15 15 15 14 14 13 13 12 11 10 10 10 9 9 9 8 8 7 7 6 6 6 5 4
19 19 18 18 18 19 19 19 19 19 19 19 18 18 18 18 18 18 17 17 17 16 15 15 14 14 14 13 12 12 11 11 10 10 10 10 9 8 7 7 7 6 5
21 21 21 21 21 21 21 22 21 21 20 20 20 21 20 20 20 19 19 19 18 17 17 16 16 15 15 15 14 13 13 12 12 11 11 10 10 9 9 8 8 7 6
23 23 23 23 23 23 23 24 24 23 23 22 22 22 22 21 21 20 20 20 20 19 19 18 18 17 16 16 16 15 15 14 13 12 11 11 10 10 10 9 8 8 7
24 24 25 25 25 25 25 25 26 26 25 25 24 23 23 23 22 22 22 22 22 22 20 20 19 18 18 17 16 16 16 16 15 14 13 12 12 12 11 10 10 9 9
24 25 26 26 27 27 27 27 27 28 28 27 26 25 25 25 24 24 23 23 23 23 23 22 21 20 20 19 18 17 17 17 17 16 15 14 14 14 13 12 11 11 10
26 26 26 27 28 29 29 29 29 30 30 29 29 28 28 27 27 26 25 25 24 24 24 23 23 22 22 21 20 20 19 18 18 17 16 16 15 15 15 14 13 12 11
27 27 27 28 29 30 31 31 31 31 32 31 31 31 30 30 29 28 28 27 26 26 25 25 25 24 23 23 22 22 21 20 20 19 18 17 17 17 16 16 15 14 14
29 29 29 29 30 30 31 32 32 32 32 33 33 32 32 32 31 31 30 29 29 28 27 27 27 26 25 24 24 23 23 22 22 21 20 19 19 19 18 18 17 16 16
30 31 31 31 31 31 31 32 33 33 33 34 35 35 34 34 33 33 32 32 31 30 29 29 28 28 28 27 26 25 25 25 24 24 23 22 21 20 20 20 20 19 18
32 32 32 33 33 33 33 33 34 34 35 35 36 36 37 36 36 35 35 34 33 33 32 31 30 30 29 28 28 28 27 26 27 26 25 24 23 22 22 22 22 21 21
33 33 33 34 34 35 35 35 35 36 36 36 37 37 37 38 38 38 37 37 36 35 34 33 32 31 31 31 31 30 30 29 28 28 27 27 26 25 24 24 24 24 23
33 34 34 34 35 36 36 37 37 37 38 38 38 38 38 39 39 39 39 39 38 38 37 36 35 34 33 33 33 32 32 31 30 29 29 28 27 26 26 25 25 25 25
34 34 35 35 35 36 36 37 37 38 38 39 40 40 40 40 40 41 41 41 41 40 40 39 38 36 35 35 34 33 33 33 32 31 30 30 29 28 27 26 26 26 26
35 35 36 36 37 37 37 38 38 38 38 39 40 40 41 41 41 41 42 42 42 42 42 41 40 39 38 37 36 35 34 33 33 33 31 31 31 30 28 28 28 28 27
37 37 37 37 38 38 38 38 38 39 39 39 39 40 41 42 42 42 42 43 43 43 43 43 42 41 40 39 38 37 37 36 35 35 34 32 32 31 30 30 30 30 29
39 39 39 38 39 39 38 38 38 39 40 40 40 40 41 42 42 43 43 44 44 44 44 44 44 43 43 41 40 39 38 39 38 37 36 35 33 33 32 32 32 32 31
40 40 40 40 40 40 39 39 39 39 40 41 41 41 41 42 42 42 43 44 45 45 46 46 46 45 45 44 42 41 40 40 39 38 38 38 36 35 34 34 33 33 33
41 41 41 41 41 41 40 40 40 40 41 41 41 41 41 41 41 42 43 43 45 45 46 47 47 47 46 45 44 43 42 41 41 41 40 39 38 37 36 36 35 35 34
43 43 43 42 42 42 42 42 42 42 42 41 41 42 42 41 41 42 42 43 44 45 46 47 48 49 48 47 47 46 44 43 43 42 41 41 40 39 38 38 37 36 35
43 44 43 43 43 44 44 43 43 43 43 43 43 43 43 43 42 43 43 44 44 45 46 47 48 49 49 49 49 48 47 46 45 44 44 43 42 41 41 40 40 39 38
43 44 44 44 44 44 44 44 44 44 45 45 45 45 45 44 44 44 43 44 45 45 46 47 48 49 50 51 51 51 49 49 48 46 46 46 44 43 44 43 43 41 40
43 43 44 44 44 45 45 45 45 45 45 45 45 45 45 45 46 46 45 46 46 46 47 47 48 49 51 52 51 52 52 51 50 49 48 48 47 46 46 45 45 45 44
43 44 44 44 45 45 45 46 45 45 45 46 46 46 46 47 47 47 47 47 48 48 47 48 49 49 50 51 52 53 53 53 52 51 50 50 49 48 47 47 47 47 46
43 44 44 45 45 45 45 46 46 46 45 46 46 46 47 48 48 48 47 48 48 47 48 49 49 49 50 51 51 52 53 53 53 53 51 51 51 50 50 49 48 47 47
42 43 43 44 45 45 46 46 46 46 46 46 47 47 47 47 48 49 49 48 48 48 48 49 50 50 51 52 51 52 52 53 53 54 53 52 53 52 51 51 50 49 49
Wind_Direction
251 250 249 247 245 243 242 242 242 244 245 243 241 240 242 242 241 241 240 240 240 237 235 236 237 236 237 239 239 237 236 236 233 232 230 225 220 218 220 218 209 205 207
254 251 250 248 246 245 244 244 245 246 247 246 244 244 244 243 244 244 243 244 242 240 237 238 238 237 236 238 239 239 240 237 235 237 235 230 225 222 224 225 215 214 221
255 254 252 251 249 247 247 246 246 245 246 246 245 244 244 243 244 246 245 244 244 243 241 241 240 239 238 238 240 240 240 237 236 240 240 237 229 225 224 226 222 222 228
255 254 253 252 250 249 248 248 247 245 245 246 245 245 243 243 245 244 242 244 245 244 244 243 242 240 239 239 241 242 240 239 241 241 242 238 233 231 228 229 228 228 233
255 255 254 253 252 250 249 248 248 247 245 245 245 245 245 245 245 245 245 246 246 245 243 241 242 240 239 240 242 243 239 239 241 241 239 237 237 235 230 228 230 233 235
256 255 254 253 252 251 249 249 249 248 247 245 245 246 246 245 246 246 246 248 247 245 243 241 242 241 240 241 241 241 240 241 240 239 238 237 238 237 232 230 233 235 235
259 258 256 254 253 253 251 249 249 249 250 249 248 247 247 247 247 247 247 246 248 247 245 244 243 243 241 242 242 241 242 243 241 238 238 238 239 238 236 234 235 237 235
260 259 258 257 255 254 252 251 250 250 250 250 250 249 248 247 248 247 247 247 248 248 247 246 245 242 242 243 243 242 241 241 241 240 239 238 239 240 238 238 238 239 237
260 259 259 258 257 255 253 251 251 251 251 251 250 249 249 248 248 248 247 247 248 248 248 247 246 244 242 243 244 243 242 240 240 239 238 238 239 240 240 240 240 241 240
261 259 259 259 258 257 255 252 252 252 252 252 251 250 250 249 249 249 249 248 247 247 246 246 246 245 243 243 243 243 243 241 240 239 238 238 239 240 241 241 241 242 243
261 260 259 258 257 257 256 254 253 253 253 253 253 252 251 250 249 249 249 248 246 245 245 245 246 246 245 244 244 243 242 241 241 240 239 239 239 241 242 242 243 244 245
261 260 259 258 256 256 256 256 255 254 254 253 253 253 252 251 250 249 248 247 246 245 245 246 246 247 247 246 246 244 244 242 241 241 240 239 240 241 243 244 244 246 246
261 260 260 259 257 256 256 256 256 256 255 254 254 253 252 251 250 249 248 247 247 246 246 247 247 247 248 248 247 246 244 244 243 243 241 240 241 242 243 244 244 245 247
262 262 260 259 259 258 257 256 256 256 256 254 254 253 252 251 250 249 249 249 248 248 249 249 248 248 248 248 248 247 245 243 242 242 242 242 241 242 243 245 245 245 246
261 262 261 260 260 259 257 256 256 256 256 256 255 254 253 253 251 250 250 249 248 248 248 248 248 248 247 248 248 247 245 243 241 241 241 241 241 242 242 244 245 246 247
261 261 261 261 260 259 258 257 257 256 256 257 256 255 254 253 252 251 250 249 249 248 248 248 247 247 247 247 247 247 246 244 243 243 241 241 241 242 242 243 245 246 246
260 260 259 260 260 259 258 257 257 256 256 257 257 256 255 254 253 252 251 250 249 249 248 248 247 247 247 247 247 247 246 245 244 244 243 243 243 243 243 244 245 245 245
260 260 260 259 259 258 257 257 257 257 256 257 257 256 255 255 254 254 252 251 250 249 249 248 247 246 246 246 246 246 245 245 244 244 245 244 244 244 244 244 245 246 246
261 260 260 259 258 257 255 256 258 258 256 256 256 256 256 256 255 255 253 252 252 250 249 247 247 246 246 245 245 245 244 244 244 244 245 245 244 244 245 245 245 246 247
261 260 259 258 256 255 256 258 258 257 256 256 256 255 256 257 257 256 255 254 253 251 249 248 247 246 245 244 244 244 243 243 243 244 245 245 245 244 245 246 246 247 247
260 259 259 258 257 256 256 257 257 257 256 255 256 256 257 257 257 257 257 255 254 252 251 249 247 246 245 244 244 243 243 243 243 244 245 245 245 246 246 247 247 247 248
260 259 259 258 257 256 257 257 256 256 255 254 254 255 256 257 257 257 257 256 254 252 251 249 248 246 245 244 244 244 243 243 243 243 244 245 246 246 246 247 247 248 248
260 259 259 258 258 257 257 257 257 257 256 255 254 256 256 257 257 257 256 256 255 253 252 250 248 245 244 244 245 245 244 244 243 244 244 246 246 246 247 248 248 248 249
261 260 259 258 257 257 257 258 257 257 256 255 254 255 256 256 257 257 256 256 255 253 252 250 249 247 245 245 245 244 244 244 244 244 245 246 246 246 247 249 249 249 250
261 261 259 258 258 258 258 257 256 256 256 255 255 254 255 256 257 258 257 255 254 252 251 250 248 247 247 246 245 245 245 245 245 244 245 246 245 246 247 248 249 249 249
261 261 260 259 259 259 258 258 257 256 256 256 256 256 257 257 258 258 257 255 253 252 250 249 248 248 248 246 246 246 246 246 246 245 246 246 245 246 248 249 249 249 248
Height
5827 5827 5828 5828 5829 5830 5831 5831 5832 5833 5834 5835 5836 5837 5837 5838 5839 5840 5840 5841 5842 5842 5843 5844 5844 5845 5846 5847 5847 5848 5848 5849 5849 5849 5850 5850 5850 5851 5851 5852 5852 5852 5852
5824 5824 5825 5825 5826 5827 5828 5828 5829 5830 5831 5832 5833 5834 5835 5835 5836 5837 5838 5838 5839 5840 5840 5841 5842 5843 5844 5845 5845 5846 5847 5847 5848 5848 5848 5849 5849 5850 5850 5851 5851 5852 5852
5819 5820 5821 5821 5822 5823 5824 5825 5825 5826 5827 5828 5829 5830 5831 5832 5833 5834 5835 5835 5836 5837 5838 5839 5839 5841 5841 5842 5843 5844 5845 5845 5846 5846 5847 5848 5848 5848 5849 5850 5850 5851 5851
5815 5815 5816 5817 5818 5818 5819 5820 5821 5822 5823 5824 5825 5826 5827 5828 5829 5830 5831 5832 5833 5834 5835 5836 5837 5838 5839 5840 5841 5842 5842 5843 5844 5845 5845 5846 5847 5847 5848 5848 5849 5849 5850
5810 5811 5811 5812 5813 5813 5814 5815 5816 5817 5818 5820 5821 5822 5823 5824 5825 5826 5827 5828 5829 5830 5831 5832 5833 5834 5836 5837 5838 5839 5840 5841 5842 5843 5843 5844 5845 5846 5846 5847 5848 5848 5848
5805 5805 5806 5806 5807 5808 5809 5810 5811 5812 5813 5814 5816 5817 5818 5819 5821 5822 5823 5824 5825 5826 5827 5828 5830 5831 5832 5834 5835 5836 5837 5838 5839 5840 5841 5842 5843 5844 5844 5845 5846 5847 5847
5799 5799 5799 5800 5801 5802 5803 5804 5805 5806 5807 5808 5810 5811 5813 5814 5815 5817 5818 5820 5821 5822 5823 5824 5825 5827 5829 5830 5831 5832 5834 5835 5836 5837 5838 5839 5840 5841 5842 5843 5844 5845 5845
5792 5792 5793 5793 5794 5795 5796 5797 5798 5799 5801 5802 5804 5805 5807 5808 5810 5811 5813 5815 5816 5817 5818 5819 5821 5822 5824 5826 5827 5828 5830 5831 5832 5834 5835 5836 5837 5838 5839 5840 5841 5842 5843
5785 5786 5786 5786 5787 5788 5789 5790 5791 5792 5794 5795 5797 5799 5800 5802 5804 5805 5807 5809 5810 5812 5813 5814 5816 5817 5819 5821 5823 5824 5825 5827 5829 5830 5831 5833 5834 5835 5836 5837 5838 5839 5840
5778 5779 5779 5779 5780 5780 5782 5783 5784 5785 5786 5788 5789 5791 5793 5795 5797 5798 5800 5802 5804 5806 5807 5809 5810 5812 5814 5816 5818 5819 5821 5822 5824 5826 5827 5829 5830 5831 5832 5834 5835 5836 5837
5771 5771 5771 5772 5772 5773 5774 5775 5776 5778 5779 5780 5781 5783 5785 5787 5789 5791 5793 5795 5797 5799 5801 5802 5804 5806 5808 5810 5812 5814 5815 5817 5819 5821 5823 5824 5825 5827 5828 5830 5831 5832 5833
5762 5762 5763 5764 5764 5765 5766 5767 5768 5770 5771 5772 5773 5775 5777 5779 5781 5783 5785 5787 5789 5792 5794 5796 5797 5800 5802 5804 5806 5808 5809 5811 5813 5815 5817 5819 5821 5822 5824 5825 5826 5827 5829
5754 5754 5754 5755 5756 5756 5757 5759 5760 5761 5762 5764 5765 5767 5768 5770 5772 5775 5777 5779 5782 5784 5786 5788 5790 5793 5795 5797 5799 5801 5803 5805 5807 5809 5811 5813 5815 5817 5818 5820 5821 5823 5824
5745 5745 5745 5746 5747 5747 5748 5750 5751 5752 5754 5755 5756 5757 5759 5761 5763 5765 5768 5771 5773 5776 5778 5780 5783 5785 5787 5790 5792 5794 5796 5799 5801 5803 5805 5807 5809 5811 5813 5815 5816 5818 5819
5736 5736 5737 5737 5738 5738 5739 5740 5742 5743 5745 5746 5747 5748 5750 5752 5754 5756 5758 5761 5764 5766 5769 5771 5774 5776 5779 5782 5784 5787 5789 5791 5794 5796 5799 5801 5803 5805 5807 5809 5810 5812 5814
5727 5727 5727 5728 5728 5729 5730 5731 5733 5734 5735 5736 5738 5739 5740 5742 5744 5746 5748 5751 5753 5756 5759 5762 5764 5767 5770 5773 5776 5779 5781 5784 5786 5789 5792 5794 5796 5798 5800 5802 5804 5806 5808
5717 5717 5718 5718 5719 5719 5720 5721 5723 5724 5726 5727 5728 5729 5731 5732 5734 5736 5738 5741 5743 5745 5748 5751 5754 5757 5760 5764 5767 5770 5773 5776 5778 5781 5784 5786 5789 5791 5793 5795 5797 5799 5801
5707 5707 5707 5708 5708 5709 5710 5711 5713 5714 5716 5717 5718 5719 5721 5722 5724 5725 5728 5730 5732 5734 5737 5740 5743 5747 5750 5754 5757 5760 5764 5767 5770 5773 5776 5778 5781 5784 5786 5788 5790 5792 5794
5695 5696 5697 5697 5698 5699 5700 5701 5703 5704 5705 5706 5708 5709 5710 5712 5713 5715 5717 5718 5720 5723 5725 5728 5732 5735 5739 5743 5747 5750 5754 5757 5760 5763 5767 5770 5772 5775 5778 5780 5782 5784 5787
5684 5685 5685 5686 5687 5688 5690 5691 5692 5693 5694 5695 5697 5698 5700 5701 5703 5704 5706 5707 5709 5711 5714 5716 5720 5724 5728 5732 5736 5740 5744 5747 5750 5754 5757 5760 5763 5766 5769 5771 5774 5776 5779
5672 5673 5673 5675 5676 5677 5679 5680 5681 5682 5683 5684 5686 5687 5689 5691 5692 5693 5695 5696 5698 5700 5702 5705 5708 5712 5716 5720 5724 5728 5733 5736 5740 5744 5747 5750 5753 5756 5759 5762 5765 5767 5770
5660 5661 5662 5663 5664 5665 5667 5668 5669 5670 5672 5673 5674 5676 5678 5679 5681 5682 5683 5685 5686 5689 5691 5693 5696 5699 5703 5707 5711 5716 5720 5725 5729 5733 5736 5740 5743 5745 5749 5752 5754 5758 5760
5648 5649 5650 5651 5652 5653 5655 5656 5657 5658 5659 5661 5663 5665 5666 5667 5669 5670 5671 5673 5674 5677 5679 5681 5684 5687 5691 5695 5698 5703 5708 5712 5717 5721 5725 5728 5731 5735 5738 5741 5744 5747 5750
5636 5637 5638 5639 5640 5641 5643 5644 5645 5646 5648 5649 5651 5653 5654 5655 5656 5658 5659 5660 5662 5664 5666 5669 5671 5675 5678 5682 5685 5689 5694 5699 5703 5709 5713 5716 5720 5723 5726 5729 5733 5736 5739
5624 5624 5625 5626 5627 5629 5630 5631 5632 5634 5635 5637 5638 5640 5641 5643 5644 5645 5646 5648 5649 5651 5653 5656 5659 5662 5665 5669 5673 5677 5681 5685 5690 5695 5700 5703 5707 5711 5714 5717 5721 5724 5727
5611 5612 5613 5614 5615 5616 5617 5618 5620 5621 5623 5624 5626 5627 5628 5630 5631 5632 5633 5634 5635 5637 5640 5643 5646 5649 5652 5656 5660 5664 5668 5672 5676 5681 5686 5690 5694 5698 5701 5705 5709 5712 5715